Lid_Strength_Index
1 1 2 2 2 3 3 3 3 2 2 2 2 2 2 2 2 1 3 3 1 -2 0 2 3 3 2 3 3 3 6 7 7 7 6 4 4 3 3 4 4 3 3 2 1
1 1 1 2 2 2 2 3 3 2 2 2 2 2 2 2 2 2 1 -2 -2 -3 3 3 4 3 3 3 3 4 6 6 5 5 5 4 4 4 4 5 5 4 3 2 1
1 1 1 2 2 2 2 2 2 2 2 2 2 2 2 2 2 2 -2 -2 -3 -1 2 2 2 3 4 3 4 4 6 4 4 4 4 4 4 3 5 6 5 5 4 2 2
2 2 2 2 2 2 2 2 2 2 2 2 2 2 2 1 6 1 -3 -3 -3 0 2 3 3 4 4 5 4 5 4 4 4 4 4 5 4 5 5 5 3 3 2 2 2
2 2 2 2 2 2 2 2 2 2 2 3 2 2 2 3 3 -0 -3 -2 0 2 3 3 3 3 5 4 4 5 4 4 4 4 4 4 5 5 5 3 3 2 2 3 2
2 2 2 2 2 2 2 2 2 2 3 3 2 2 2 5 1 1 0 1 2 2 3 2 3 3 4 4 4 4 4 4 4 4 4 5 5 5 5 3 3 3 3 3 3
2 3 3 2 2 2 2 2 2 2 3 2 2 0 2 3 1 1 2 3 2 2 3 2 2 3 3 4 3 4 5 5 4 4 4 4 6 7 4 3 4 4 3 3 3
2 3 3 3 2 2 2 2 2 2 2 2 1 0 3 0 -0 1 1 2 2 1 1 1 2 2 3 3 4 5 5 7 5 4 4 4 7 6 4 4 5 4 4 3 3
2 3 3 3 3 2 2 2 2 2 2 1 1 2 4 1 2 1 1 2 2 2 2 2 2 3 3 5 6 6 8 7 6 4 5 5 7 5 4 4 5 4 4 4 3
2 3 3 3 3 3 3 2 1 2 1 -1 0 3 2 3 2 2 1 1 3 3 3 4 4 5 5 6 9 8 8 7 7 5 5 6 6 5 4 4 5 4 4 4 4
3 3 3 3 3 3 3 0 2 3 1 3 3 3 3 2 1 2 1 2 3 3 5 4 6 7 6 5 5 6 7 7 6 5 6 6 6 6 5 5 5 5 4 4 4
3 3 3 4 3 3 2 2 2 2 5 3 3 3 2 2 4 3 2 4 5 6 4 5 7 5 5 5 6 6 7 7 6 6 6 6 6 6 5 5 4 5 5 4 4
3 4 3 4 4 3 1 2 0 1 4 4 3 4 3 2 4 4 3 3 5 6 5 6 6 5 6 6 7 7 7 7 7 6 5 6 7 7 5 5 4 4 4 4 4
3 3 3 4 3 2 2 1 0 0 7 6 5 4 3 3 5 2 2 3 4 6 5 6 5 6 6 6 6 8 6 6 7 8 9 6 10 8 6 6 6 5 4 4 3
4 3 4 4 1 3 2 1 0 1 12 5 5 1 2 4 4 4 2 3 5 5 5 7 6 6 7 6 5 7 5 6 6 7 8 8 9 7 6 8 6 5 4 4 3
4 4 4 2 1 1 1 0 1 8 12 7 4 5 5 4 5 4 4 3 3 5 5 6 4 5 5 5 5 5 6 6 6 7 10 8 9 9 7 7 6 5 4 4 3
4 4 4 2 3 1 1 2 8 10 6 7 6 5 5 6 5 5 5 6 6 8 8 6 6 5 5 6 5 6 7 10 11 11 11 8 9 8 6 5 5 4 4 4 3
4 5 2 1 0 0 1 5 10 8 7 5 6 6 7 5 5 5 6 7 5 6 7 9 10 6 5 6 7 7 7 10 13 12 11 8 10 8 5 5 4 4 3 3 3
6 2 2 1 0 0 3 8 8 7 7 6 6 7 7 6 6 6 6 7 5 5 8 8 9 5 5 5 5 7 8 6 9 9 11 9 8 6 5 5 5 5 4 4 3
4 3 3 0 -0 1 5 8 6 6 6 6 8 7 8 7 7 7 7 5 6 5 4 6 9 6 6 5 5 6 5 9 9 13 14 10 10 9 8 6 6 5 5 4 3
4 5 2 -0 -0 3 8 7 6 5 5 7 7 7 7 7 7 7 7 6 5 5 4 5 7 8 6 7 7 7 8 7 7 9 12 13 10 6 6 5 6 5 4 4 3
4 7 2 1 5 5 6 5 7 5 5 6 6 6 6 6 7 7 7 6 4 4 6 5 6 9 8 6 5 6 7 7 11 11 9 10 11 5 5 5 5 5 4 3 3
6 5 2 3 8 7 5 5 5 5 6 6 6 5 5 6 8 7 6 5 4 5 6 5 7 11 9 7 6 7 6 6 7 8 11 13 11 5 5 5 4 4 4 4 3
6 8 5 4 5 6 7 6 6 4 5 5 5 5 5 6 5 7 6 5 5 4 5 5 7 8 11 9 7 9 8 7 7 11 10 10 8 6 6 6 5 4 4 3 4
6 7 6 7 6 6 6 7 7 7 5 4 5 5 6 8 7 7 6 6 5 6 5 5 9 7 7 7 7 8 8 7 8 8 10 9 8 6 5 5 4 4 4 4 3
7 7 6 6 6 6 7 7 8 7 7 7 6 6 5 7 6 7 6 6 6 5 6 5 10 8 9 7 7 8 7 7 7 7 7 7 8 5 4 4 4 4 4 4 4
5 5 6 8 7 7 7 7 7 6 6 6 6 6 6 5 4 4 4 4 4 6 7 7 8 9 11 8 8 10 8 8 7 6 7 9 6 5 5 5 5 4 4 4 4